ASA1308 MMPR-KLAX

Flight info

Callsign ASA1308
Flight time N/A
Altitude 38000
Route BOBDI1B BOBDI UT4 LMM UT8 PPE J93 ASUTA DCT AMMOR OLAAA2
Aircraft B738/M-SDE2E3FGHIRWXY/LB1

Departure

Time N/A
Airport Puerto Vallarta International Airport (MMPR)

Arrival

Time 2026-04-24 23:15
Airport Los Angeles International Airport (KLAX)
Time Latitude Longitude Altitude Speed Heading
2026-04-24 21:58 29.36930 -111.74999 37842 ft 410 kts 316°
2026-04-24 21:58 29.41690 -111.78614 37866 ft 409 kts 316°
2026-04-24 21:59 29.46417 -111.82192 37850 ft 409 kts 316°
2026-04-24 21:59 29.50974 -111.85648 37850 ft 409 kts 316°
2026-04-24 22:00 29.55721 -111.89256 37846 ft 409 kts 316°
2026-04-24 22:00 29.60463 -111.92865 37853 ft 409 kts 316°
2026-04-24 22:01 29.65210 -111.96481 37884 ft 409 kts 316°
2026-04-24 22:01 29.69871 -112.00035 37857 ft 409 kts 316°
2026-04-24 22:02 29.74544 -112.03602 37846 ft 408 kts 316°
2026-04-24 22:02 29.79243 -112.07195 37853 ft 407 kts 316°
2026-04-24 22:03 29.83963 -112.10809 37851 ft 407 kts 316°
2026-04-24 22:03 29.88680 -112.14426 37872 ft 406 kts 316°
2026-04-24 22:04 29.93389 -112.18040 37854 ft 406 kts 316°
2026-04-24 22:04 29.98088 -112.21651 37848 ft 406 kts 316°
2026-04-24 22:05 30.02751 -112.25237 37848 ft 405 kts 315°
2026-04-24 22:05 30.07446 -112.28853 37847 ft 405 kts 315°
2026-04-24 22:06 30.12138 -112.32471 37859 ft 405 kts 315°
2026-04-24 22:06 30.16794 -112.36065 37854 ft 404 kts 315°
2026-04-24 22:07 30.21472 -112.39680 37836 ft 403 kts 315°
2026-04-24 22:07 30.26133 -112.43286 37845 ft 402 kts 315°
2026-04-24 22:08 30.30797 -112.46899 37850 ft 403 kts 315°
2026-04-24 22:08 30.35421 -112.50486 37849 ft 403 kts 315°
2026-04-24 22:09 30.40091 -112.54112 37845 ft 403 kts 315°
2026-04-24 22:09 30.44759 -112.57741 37834 ft 403 kts 315°
2026-04-24 22:10 30.49396 -112.61350 37845 ft 403 kts 315°
2026-04-24 22:10 30.54062 -112.64985 37847 ft 403 kts 315°
2026-04-24 22:11 30.58732 -112.68628 37858 ft 403 kts 315°
2026-04-24 22:11 30.63389 -112.72264 37859 ft 403 kts 315°
2026-04-24 22:12 30.68008 -112.75876 37847 ft 402 kts 315°
2026-04-24 22:12 30.72658 -112.79515 37837 ft 402 kts 315°
2026-04-24 22:13 30.77295 -112.83150 37846 ft 401 kts 315°
2026-04-24 22:13 30.81928 -112.86786 37865 ft 402 kts 315°
2026-04-24 22:14 30.86537 -112.90408 37853 ft 402 kts 315°
2026-04-24 22:14 30.91169 -112.94050 37847 ft 401 kts 315°
2026-04-24 22:15 30.95795 -112.97694 37864 ft 401 kts 315°
2026-04-24 22:15 31.00249 -113.01205 37846 ft 401 kts 315°
2026-04-24 22:16 31.04875 -113.04857 37861 ft 401 kts 315°
2026-04-24 22:16 31.09471 -113.08489 37857 ft 401 kts 315°
2026-04-24 22:17 31.14088 -113.12142 37859 ft 401 kts 315°
2026-04-24 22:17 31.18708 -113.15802 37865 ft 401 kts 315°
2026-04-24 22:18 31.23332 -113.19470 37869 ft 401 kts 315°
2026-04-24 22:18 31.27951 -113.23139 37871 ft 402 kts 315°
2026-04-24 22:19 31.32549 -113.26793 37870 ft 402 kts 315°
2026-04-24 22:19 31.36801 -113.30889 37877 ft 387 kts 304°
2026-04-24 22:20 31.39965 -113.35798 37879 ft 377 kts 295°
2026-04-24 22:20 31.42837 -113.40951 37873 ft 378 kts 295°
2026-04-24 22:21 31.45724 -113.46127 37859 ft 379 kts 295°
2026-04-24 22:21 31.48608 -113.51285 37859 ft 381 kts 296°
2026-04-24 22:22 31.51527 -113.56500 37855 ft 383 kts 296°
2026-04-24 22:22 31.54455 -113.61736 37849 ft 384 kts 296°
2026-04-24 22:23 31.57358 -113.66932 37854 ft 384 kts 296°
2026-04-24 22:23 31.60287 -113.72182 37852 ft 384 kts 296°
2026-04-24 22:24 31.63219 -113.77445 37846 ft 384 kts 295°
2026-04-24 22:24 31.66144 -113.82703 37855 ft 385 kts 296°
2026-04-24 22:25 31.69053 -113.87940 37841 ft 385 kts 296°
2026-04-24 22:25 31.71976 -113.93209 37847 ft 384 kts 295°
2026-04-24 22:26 31.74899 -113.98485 37844 ft 384 kts 295°
2026-04-24 22:26 31.77717 -114.03579 37841 ft 384 kts 295°
2026-04-24 22:27 31.80614 -114.08821 37837 ft 384 kts 295°
2026-04-24 22:27 31.83522 -114.14093 37852 ft 384 kts 295°
2026-04-24 22:28 31.86435 -114.19381 37832 ft 385 kts 295°
2026-04-24 22:28 31.89347 -114.24672 37832 ft 385 kts 295°
2026-04-24 22:29 31.93705 -114.32606 37828 ft 385 kts 295°
2026-04-24 22:29 31.96613 -114.37910 37824 ft 385 kts 295°
2026-04-24 22:30 31.99517 -114.43213 37822 ft 385 kts 295°
2026-04-24 22:30 32.02393 -114.48475 37831 ft 386 kts 295°
2026-04-24 22:31 32.05303 -114.53805 37823 ft 386 kts 295°
2026-04-24 22:31 32.08211 -114.59137 37827 ft 386 kts 295°
2026-04-24 22:32 32.11116 -114.64472 37825 ft 386 kts 295°
2026-04-24 22:32 32.14014 -114.69802 37819 ft 386 kts 295°
2026-04-24 22:33 32.16913 -114.75141 37818 ft 386 kts 295°
2026-04-24 22:33 32.19788 -114.80444 37845 ft 386 kts 295°
2026-04-24 22:34 32.22685 -114.85797 37824 ft 387 kts 295°
2026-04-24 22:34 32.25586 -114.91162 37827 ft 387 kts 295°
2026-04-24 22:35 32.28483 -114.96527 37823 ft 387 kts 295°
2026-04-24 22:35 32.31267 -115.01692 37805 ft 387 kts 295°
2026-04-24 22:36 32.34157 -115.07058 37825 ft 386 kts 295°
2026-04-24 22:36 32.37045 -115.12420 37869 ft 387 kts 295°
2026-04-24 22:37 32.39944 -115.17810 37858 ft 387 kts 295°
2026-04-24 22:37 32.42819 -115.23164 37855 ft 387 kts 295°
2026-04-24 22:38 32.45711 -115.28557 37858 ft 387 kts 295°
2026-04-24 22:38 32.48599 -115.33951 37828 ft 387 kts 295°
2026-04-24 22:39 32.51477 -115.39331 37821 ft 386 kts 295°
2026-04-24 22:39 32.54341 -115.44697 37862 ft 386 kts 295°
2026-04-24 22:40 32.57218 -115.50095 37826 ft 387 kts 295°
2026-04-24 22:40 32.59607 -115.54582 37816 ft 387 kts 295°
2026-04-24 22:41 32.62485 -115.59995 37822 ft 387 kts 295°
2026-04-24 22:41 32.65335 -115.65361 37808 ft 387 kts 295°
2026-04-24 22:42 32.68185 -115.70771 37820 ft 386 kts 295°
2026-04-24 22:42 32.71024 -115.76183 37820 ft 386 kts 295°
2026-04-24 22:43 32.73876 -115.81626 37831 ft 388 kts 295°
2026-04-24 22:43 32.76727 -115.87071 37825 ft 388 kts 295°
2026-04-24 22:44 32.79580 -115.92526 37841 ft 388 kts 295°
2026-04-24 22:44 32.82382 -115.97982 37822 ft 387 kts 294°
2026-04-24 22:45 32.85039 -116.03295 37849 ft 386 kts 294°
2026-04-24 22:45 32.87783 -116.08793 37855 ft 386 kts 294°
2026-04-24 22:46 32.90518 -116.14266 37872 ft 387 kts 294°
2026-04-24 22:46 32.93272 -116.19777 37870 ft 387 kts 294°
2026-04-24 22:47 32.96026 -116.25294 37851 ft 388 kts 294°
2026-04-24 22:47 32.98778 -116.30815 37647 ft 385 kts 294°
2026-04-24 22:48 33.00120 -116.33512 37046 ft 383 kts 294°
2026-04-24 22:48 33.01477 -116.36238 36438 ft 382 kts 294°
2026-04-24 22:48 33.02833 -116.38967 35863 ft 382 kts 294°
2026-04-24 22:48 33.04197 -116.41714 35196 ft 383 kts 294°
2026-04-24 22:49 33.05473 -116.44486 34512 ft 381 kts 289°
2026-04-24 22:49 33.06507 -116.47333 33867 ft 381 kts 288°
2026-04-24 22:49 33.07571 -116.50269 33059 ft 384 kts 288°
2026-04-24 22:49 33.08656 -116.53231 32322 ft 386 kts 288°
2026-04-24 22:50 33.09711 -116.56084 31591 ft 388 kts 289°
2026-04-24 22:50 33.10815 -116.59043 30855 ft 390 kts 289°
2026-04-24 22:50 33.11923 -116.62005 30062 ft 392 kts 288°
2026-04-24 22:50 33.13020 -116.64969 29197 ft 395 kts 287°
2026-04-24 22:51 33.13775 -116.68149 28267 ft 403 kts 276°
2026-04-24 22:51 33.14242 -116.71509 27311 ft 416 kts 276°
2026-04-24 22:51 33.14713 -116.74937 26333 ft 420 kts 277°
2026-04-24 22:51 33.15196 -116.78387 25509 ft 419 kts 277°
2026-04-24 22:52 33.15683 -116.81799 24778 ft 415 kts 277°
2026-04-24 22:52 33.16170 -116.85165 24070 ft 411 kts 277°
2026-04-24 22:52 33.16656 -116.88506 23341 ft 407 kts 277°
2026-04-24 22:52 33.17134 -116.91783 22573 ft 403 kts 277°
2026-04-24 22:53 33.17611 -116.95058 21873 ft 398 kts 277°
2026-04-24 22:53 33.18081 -116.98293 21166 ft 393 kts 277°
2026-04-24 22:53 33.18513 -117.01270 20549 ft 389 kts 277°
2026-04-24 22:53 33.18971 -117.04438 19864 ft 385 kts 277°
2026-04-24 22:54 33.19424 -117.07584 19227 ft 382 kts 277°
2026-04-24 22:54 33.19872 -117.10698 18549 ft 378 kts 277°
2026-04-24 22:54 33.20316 -117.13791 17860 ft 376 kts 277°
2026-04-24 22:54 33.20758 -117.16865 17200 ft 372 kts 277°
2026-04-24 22:55 33.21195 -117.19901 16570 ft 368 kts 277°
2026-04-24 22:55 33.21625 -117.22910 15920 ft 365 kts 277°
2026-04-24 22:55 33.22044 -117.25846 15297 ft 363 kts 277°
2026-04-24 22:55 33.22472 -117.28855 14661 ft 360 kts 277°
2026-04-24 22:56 33.22890 -117.31790 14081 ft 358 kts 278°
2026-04-24 22:56 33.23323 -117.34668 13904 ft 346 kts 278°
2026-04-24 22:56 33.23768 -117.37501 13789 ft 355 kts 278°
2026-04-24 22:56 33.24235 -117.40467 13633 ft 368 kts 278°
2026-04-24 22:57 33.24708 -117.43475 13470 ft 373 kts 278°
2026-04-24 22:57 33.25183 -117.46515 13299 ft 371 kts 278°
2026-04-24 22:57 33.25655 -117.49547 13176 ft 370 kts 278°
2026-04-24 22:57 33.26164 -117.52550 13009 ft 369 kts 283°
2026-04-24 22:58 33.27242 -117.55356 12799 ft 376 kts 299°
2026-04-24 22:58 33.28687 -117.57970 12570 ft 377 kts 300°
2026-04-24 22:58 33.30134 -117.60591 12321 ft 378 kts 300°
2026-04-24 22:58 33.31573 -117.63218 12093 ft 378 kts 300°
2026-04-24 22:59 33.32989 -117.65822 11850 ft 375 kts 300°
2026-04-24 22:59 33.34381 -117.68394 11606 ft 362 kts 300°
2026-04-24 22:59 33.37010 -117.73274 11164 ft 337 kts 300°
2026-04-24 23:00 33.38258 -117.75600 10958 ft 326 kts 300°
2026-04-24 23:00 33.39467 -117.77855 10759 ft 316 kts 300°
2026-04-24 23:00 33.40641 -117.80049 10567 ft 308 kts 300°
2026-04-24 23:00 33.41769 -117.82157 10378 ft 300 kts 300°
2026-04-24 23:01 33.42879 -117.84232 10191 ft 293 kts 300°
2026-04-24 23:01 33.43968 -117.86268 10013 ft 286 kts 300°
2026-04-24 23:01 33.45023 -117.88240 9961 ft 275 kts 300°
2026-04-24 23:01 33.46040 -117.90143 9689 ft 270 kts 300°
2026-04-24 23:02 33.47050 -117.92020 9518 ft 265 kts 302°
2026-04-24 23:02 33.48410 -117.93511 9316 ft 270 kts 327°
2026-04-24 23:02 33.50139 -117.94440 9160 ft 274 kts 336°
2026-04-24 23:02 33.51945 -117.95205 8986 ft 276 kts 337°
2026-04-24 23:03 33.53782 -117.95959 8791 ft 278 kts 337°
2026-04-24 23:03 33.55613 -117.96724 8627 ft 280 kts 337°
2026-04-24 23:03 33.57423 -117.97497 8447 ft 277 kts 336°
2026-04-24 23:03 33.59225 -117.98275 8265 ft 274 kts 336°
2026-04-24 23:04 33.61010 -117.99050 8091 ft 270 kts 337°
2026-04-24 23:04 33.62778 -117.99812 7906 ft 270 kts 338°
2026-04-24 23:04 33.64405 -118.00419 7706 ft 272 kts 341°
2026-04-24 23:04 33.66223 -118.01069 7481 ft 273 kts 339°
2026-04-24 23:05 33.68055 -118.01728 7270 ft 275 kts 340°
2026-04-24 23:05 33.69862 -118.02379 7063 ft 272 kts 341°
2026-04-24 23:05 33.71658 -118.03032 6998 ft 267 kts 339°
2026-04-24 23:05 33.73397 -118.03667 6983 ft 258 kts 340°
2026-04-24 23:06 33.75110 -118.04298 6951 ft 255 kts 341°
2026-04-24 23:06 33.76794 -118.04914 6928 ft 246 kts 340°
2026-04-24 23:06 33.78392 -118.05500 6915 ft 236 kts 338°
2026-04-24 23:06 33.79931 -118.06190 6643 ft 238 kts 335°
2026-04-24 23:07 33.81463 -118.06945 6401 ft 236 kts 335°
2026-04-24 23:07 33.82921 -118.07658 6099 ft 231 kts 336°
2026-04-24 23:07 33.84432 -118.08389 5793 ft 224 kts 335°
2026-04-24 23:07 33.85862 -118.09079 5523 ft 217 kts 336°
2026-04-24 23:08 33.87273 -118.09758 5261 ft 210 kts 335°
2026-04-24 23:08 33.88612 -118.10401 5048 ft 204 kts 336°
2026-04-24 23:08 33.89933 -118.10838 4848 ft 196 kts 356°
2026-04-24 23:08 33.91275 -118.10875 4674 ft 187 kts 355°
2026-04-24 23:09 33.92545 -118.10935 4500 ft 178 kts 352°
2026-04-24 23:09 33.93598 -118.11528 4327 ft 160 kts 316°
2026-04-24 23:09 33.94455 -118.12380 4142 ft 158 kts 319°
2026-04-24 23:09 33.95312 -118.13189 3978 ft 155 kts 317°
2026-04-24 23:10 33.95879 -118.14229 3933 ft 149 kts 272°
2026-04-24 23:10 33.95779 -118.15466 3775 ft 153 kts 264°
2026-04-24 23:10 33.95789 -118.16742 3579 ft 151 kts 267°
2026-04-24 23:10 33.95769 -118.17969 3408 ft 145 kts 264°
2026-04-24 23:11 33.95689 -118.19198 3210 ft 147 kts 262°
2026-04-24 23:11 33.95580 -118.20425 3009 ft 145 kts 260°
2026-04-24 23:11 33.95462 -118.21626 2810 ft 144 kts 260°
2026-04-24 23:11 33.95343 -118.22811 2621 ft 141 kts 257°
2026-04-24 23:12 33.95219 -118.23969 2465 ft 144 kts 259°
2026-04-24 23:12 33.95101 -118.25119 2259 ft 140 kts 258°
2026-04-24 23:12 33.94981 -118.26311 2083 ft 140 kts 257°
2026-04-24 23:12 33.94856 -118.27483 1878 ft 142 kts 257°
2026-04-24 23:13 33.94736 -118.28648 1680 ft 137 kts 259°
2026-04-24 23:13 33.94616 -118.29792 1532 ft 141 kts 259°
2026-04-24 23:13 33.94492 -118.30990 1327 ft 143 kts 257°
2026-04-24 23:13 33.94369 -118.32155 1116 ft 138 kts 259°
2026-04-24 23:14 33.94260 -118.33299 964 ft 139 kts 262°
2026-04-24 23:14 33.94133 -118.34454 787 ft 138 kts 262°
2026-04-24 23:14 33.94009 -118.35588 650 ft 135 kts 262°
2026-04-24 23:14 33.93882 -118.36695 426 ft 131 kts 264°
2026-04-24 23:15 33.93821 -118.37388 298 ft 128 kts 261°
2026-04-24 23:15 33.93698 -118.38684 120 ft 117 kts 259°
2026-04-24 23:15 33.93601 -118.39552 93 ft 85 kts 261°
2026-04-24 23:15 33.93569 -118.39881 94 ft 46 kts 263°
2026-04-24 23:16 33.93574 -118.40199 95 ft 29 kts 279°
2026-04-24 23:16 33.93622 -118.40380 94 ft 16 kts 281°
2026-04-24 23:16 33.93618 -118.40506 94 ft 8 kts 264°
2026-04-24 23:16 33.93616 -118.40526 94 ft 2 kts 264°
2026-04-24 23:17 33.93615 -118.40539 94 ft 2 kts 264°
2026-04-24 23:17 33.93613 -118.40563 95 ft 9 kts 264°
2026-04-24 23:17 33.93598 -118.40663 94 ft 13 kts 263°
2026-04-24 23:17 33.93593 -118.40766 93 ft 12 kts 267°
2026-04-24 23:18 33.93592 -118.40868 93 ft 11 kts 288°
2026-04-24 23:18 33.93662 -118.40898 96 ft 11 kts 354°
2026-04-24 23:18 33.93738 -118.40907 94 ft 11 kts 354°
2026-04-24 23:18 33.93813 -118.40918 93 ft 11 kts 353°
2026-04-24 23:19 33.93877 -118.40890 92 ft 11 kts 58°
2026-04-24 23:19 33.93883 -118.40805 94 ft 10 kts 89°
2026-04-24 23:19 33.93892 -118.40718 93 ft 10 kts 79°
2026-04-24 23:19 33.93905 -118.40635 92 ft 10 kts 79°
2026-04-24 23:20 33.93917 -118.40555 92 ft 10 kts 79°
2026-04-24 23:20 33.93920 -118.40469 93 ft 14 kts 90°
2026-04-24 23:20 33.93927 -118.40354 93 ft 12 kts 82°
2026-04-24 23:20 33.93965 -118.40301 94 ft 1 kts
2026-04-24 23:21 33.93971 -118.40311 92 ft 2 kts 290°
2026-04-24 23:21 33.93972 -118.40324 92 ft 2 kts 276°
2026-04-24 23:21 33.93971 -118.40337 92 ft 1 kts 267°
2026-04-24 23:21 33.93973 -118.40349 92 ft 2 kts 283°
2026-04-24 23:22 33.93985 -118.40369 95 ft 4 kts 310°
2026-04-24 23:22 33.94001 -118.40391 92 ft 3 kts 310°
2026-04-24 23:22 33.94003 -118.40395 92 ft 0 kts 310°
2026-04-24 23:23 33.93996 -118.40384 94 ft 3 kts 310°
2026-04-24 23:23 33.93990 -118.40375 95 ft 0 kts 310°